User: anonymous
Location: Black Rock Desert
(40.7548°N, 119.2364°W)
Time: 08:52:14
(UTC-07:00)
Language:

Cosmos 1340 Rocket - Orbit

View from above orbital plane
View from above orbital plane
View from above satellite
View from above satellite

Ground track
Ground track

The orbit data is extracted from the following two-line orbital elements,

1 13068U 82013B   14203.13811993  .00001162  00000-0  81538-4 0  4553
2 13068 081.2057 352.0819 0022643 212.8098 147.1720 15.04245081763792
Epoch (UTC): 22 July 2014 03:18:53
Eccentricity: 0.0022643
inclination: 81.2057°
perigee height: 538 km
apogee height: 569 km
right ascension of ascending node: 352.0819°
argument of perigee: 212.8098°
revolutions per day: 15.04245081
mean anomaly at epoch: 147.1720°
orbit number at epoch: 76379

The dashed part of the orbit path shows where the satellite is in the earth's shadow,  

DLR